COSMOS 1275 DEB, 39943

Orbit data source: Space-Track

COSMOS 1275 DEB, 39943 is space debris in LEO originally from a launch on Thu, 04 Jun 1981 UTC launched from the Plesetsk Missile And Space Complex (PKMTR). Debris objects in space refer to the collection of defunct objects orbiting the Earth. Examples of debris include non-operational satellites, rocket bodies, and fragments generated from explosions, collisions, or faulty payload assembly.

Loading next visibility...
Identifier
39943, 1981-053ND
Orbit
LEO
Country
Flag of CISCIS
Related business
Manufacturer
Unknown
Mission
Spacecraft
Bus & Motor
Unknown
Mass
Unknown
Launch date (UTC)
1981-06-04 (44 years ago)
Launch vehicle
Unknown
Launch site
Plesetsk Missile And Space Complex (PKMTR)
Object type
Payload
Rocket body
Debris
Shape & HBR
Unknown shape, 0.1 m
Radar Cross Section
Small (<0.1 m²)

Expand to show TLE details & history
Last TLE update: 2 days ago

TLE from 2 days ago
0 COSMOS 1275 DEB
1 39943U 81053ND  25288.00012936  .00001222  00000-0  14641-2 0  9996
2 39943  83.0681  17.9544 0145431 340.9935 199.7438 13.61921652562524
Epoch: 2025-10-15T00:00Z
TLE epoch observation values (Epoch: 2025-10-15T00:00:11.176Z)
Latitude
-0.29756°
Longitude
174.16334°
Altitude
1,133.221 km
Speed
7.236 km/s
True Right ascension
13h 11m 57s
True Declination
0° 17' 45"
Sunlit
Object was in daylight at epoch
Visualization orbit readout
Latitude
Unknown
Longitude
Unknown
Altitude
Unknown
Speed
Unknown
Apparent Right ascension
Unknown
Apparent Declination
Unknown
Sunlit
N/A
Visualization observer readout
Local Sidereal Time
07:41:35
Azimuth
Unknown
Elevation
Unknown
Doppler factor
Unknown
Orbital elements
Apogee altitude
1,133.555 km
Perigee altitude
918.201 km
Semi-major axis
7,404.015 km
Eccentricity
0.01454
Inclination
83.0681°
RAAN
17.9544°
Arg. of periapsis
340.9935°
True anomaly
199.19031°
Mean anomaly
199.7438°
Eccentric anomaly
199.46612°
Mean motion
3.40677 °/min
Orbital period
105.67 mins
BSTAR
0.0014641
Loading maneuver chart data...
Computing Atmospheric mass density...
Loading historical data...
Loading historical data...
Loading historical data...
Loading historical data...
Loading historical data...
Loading historical data...
Loading historical data...

Documentation

Showing up to 5 results
|